Wetterdaten: Mittwoch, 19.11.2014
Datum Zeit Temperatur Luftfeuchte Luftdruck Regen Wind Richtung Richtung Sonnenschein ET UV Solar Taupunkt Windchill Windben
19.11.2014 00:00 6,8 C 96 % 1012,0 hPa 0,0 l/m 0,4 km/h (0 Bft) S-SW 208 0 min 0,000 mm 0,0 UV-I 0 W/m 6,2 C 6,8 C 3,2 km/h (1 Bft)
19.11.2014 00:05 6,8 C 96 % 1012,1 hPa 0,0 l/m 0,4 km/h (0 Bft) SW 219 0 min 0,000 mm 0,0 UV-I 0 W/m 6,2 C 6,8 C 3,2 km/h (1 Bft)
19.11.2014 00:10 6,8 C 96 % 1012,2 hPa 0,0 l/m 0,0 km/h (0 Bft) SW 219 0 min 0,000 mm 0,0 UV-I 0 W/m 6,2 C 6,8 C 0,0 km/h (0 Bft)
19.11.2014 00:15 6,8 C 96 % 1012,2 hPa 0,0 l/m 0,1 km/h (0 Bft) SW 219 0 min 0,000 mm 0,0 UV-I 0 W/m 6,2 C 6,8 C 1,6 km/h (1 Bft)
19.11.2014 00:20 6,8 C 96 % 1012,2 hPa 0,0 l/m 0,0 km/h (0 Bft) SW 219 0 min 0,000 mm 0,0 UV-I 0 W/m 6,2 C 6,8 C 0,0 km/h (0 Bft)
19.11.2014 00:25 6,8 C 96 % 1012,1 hPa 0,0 l/m 0,0 km/h (0 Bft) SW 219 0 min 0,000 mm 0,0 UV-I 0 W/m 6,2 C 6,8 C 0,0 km/h (0 Bft)
19.11.2014 00:30 6,8 C 96 % 1012,1 hPa 0,0 l/m 0,0 km/h (0 Bft) SW 219 0 min 0,000 mm 0,0 UV-I 0 W/m 6,2 C 6,8 C 0,0 km/h (0 Bft)
19.11.2014 00:35 6,8 C 96 % 1012,2 hPa 0,0 l/m 0,0 km/h (0 Bft) SW 219 0 min 0,000 mm 0,0 UV-I 0 W/m 6,2 C 6,8 C 0,0 km/h (0 Bft)
19.11.2014 00:40 6,8 C 96 % 1012,2 hPa 0,0 l/m 0,0 km/h (0 Bft) SW 219 0 min 0,000 mm 0,0 UV-I 0 W/m 6,2 C 6,8 C 0,0 km/h (0 Bft)
19.11.2014 00:45 6,8 C 96 % 1012,3 hPa 0,0 l/m 0,0 km/h (0 Bft) SW 219 0 min 0,000 mm 0,0 UV-I 0 W/m 6,2 C 6,8 C 0,0 km/h (0 Bft)
19.11.2014 00:50 6,8 C 96 % 1012,3 hPa 0,0 l/m 0,0 km/h (0 Bft) SW 219 0 min 0,000 mm 0,0 UV-I 0 W/m 6,2 C 6,8 C 0,0 km/h (0 Bft)
19.11.2014 00:55 6,8 C 96 % 1012,3 hPa 0,0 l/m 0,0 km/h (0 Bft) SW 219 0 min 0,000 mm 0,0 UV-I 0 W/m 6,2 C 6,8 C 1,6 km/h (1 Bft)
19.11.2014 01:00 6,7 C 96 % 1012,3 hPa 0,0 l/m 0,0 km/h (0 Bft) SW 219 0 min 0,000 mm 0,0 UV-I 0 W/m 6,1 C 6,7 C 0,0 km/h (0 Bft)
19.11.2014 01:05 6,7 C 96 % 1012,3 hPa 0,0 l/m 0,0 km/h (0 Bft) SW 219 0 min 0,000 mm 0,0 UV-I 0 W/m 6,1 C 6,7 C 0,0 km/h (0 Bft)
19.11.2014 01:10 6,7 C 96 % 1012,4 hPa 0,0 l/m 0,0 km/h (0 Bft) SW 219 0 min 0,000 mm 0,0 UV-I 0 W/m 6,1 C 6,7 C 0,0 km/h (0 Bft)
19.11.2014 01:15 6,7 C 96 % 1012,5 hPa 0,0 l/m 0,0 km/h (0 Bft) SW 219 0 min 0,000 mm 0,0 UV-I 0 W/m 6,1 C 6,7 C 0,0 km/h (0 Bft)
19.11.2014 01:20 6,7 C 96 % 1012,5 hPa 0,0 l/m 0,0 km/h (0 Bft) SW 219 0 min 0,000 mm 0,0 UV-I 0 W/m 6,1 C 6,7 C 0,0 km/h (0 Bft)
19.11.2014 01:25 6,7 C 96 % 1012,6 hPa 0,0 l/m 0,2 km/h (0 Bft) O-NO 78 0 min 0,000 mm 0,0 UV-I 0 W/m 6,1 C 6,7 C 3,2 km/h (1 Bft)
19.11.2014 01:30 6,6 C 95 % 1012,7 hPa 0,0 l/m 0,2 km/h (0 Bft) O-NO 58 0 min 0,000 mm 0,0 UV-I 0 W/m 5,9 C 6,6 C 3,2 km/h (1 Bft)
19.11.2014 01:35 6,6 C 95 % 1012,7 hPa 0,0 l/m 0,3 km/h (0 Bft) N-NW 337 0 min 0,000 mm 0,0 UV-I 0 W/m 5,9 C 6,6 C 4,8 km/h (1 Bft)
19.11.2014 01:40 6,6 C 95 % 1012,8 hPa 0,0 l/m 0,0 km/h (0 Bft) N-NO 27 0 min 0,000 mm 0,0 UV-I 0 W/m 5,9 C 6,6 C 1,6 km/h (1 Bft)
19.11.2014 01:45 6,6 C 95 % 1012,8 hPa 0,0 l/m 0,0 km/h (0 Bft) N-NO 28 0 min 0,000 mm 0,0 UV-I 0 W/m 5,9 C 6,6 C 0,0 km/h (0 Bft)
19.11.2014 01:50 6,6 C 95 % 1012,9 hPa 0,0 l/m 0,0 km/h (0 Bft) N-NO 28 0 min 0,000 mm 0,0 UV-I 0 W/m 5,9 C 6,6 C 0,0 km/h (0 Bft)
19.11.2014 01:55 6,6 C 95 % 1012,9 hPa 0,0 l/m 0,0 km/h (0 Bft) N-NO 28 0 min 0,000 mm 0,0 UV-I 0 W/m 5,9 C 6,6 C 0,0 km/h (0 Bft)
19.11.2014 02:00 6,6 C 95 % 1012,9 hPa 0,0 l/m 0,0 km/h (0 Bft) N-NO 28 0 min 0,000 mm 0,0 UV-I 0 W/m 5,9 C 6,6 C 0,0 km/h (0 Bft)
19.11.2014 02:05 6,6 C 95 % 1013,0 hPa 0,0 l/m 0,0 km/h (0 Bft) N-NO 28 0 min 0,000 mm 0,0 UV-I 0 W/m 5,9 C 6,6 C 0,0 km/h (0 Bft)
19.11.2014 02:10 6,6 C 95 % 1013,0 hPa 0,0 l/m 0,0 km/h (0 Bft) N-NO 27 0 min 0,000 mm 0,0 UV-I 0 W/m 5,9 C 6,6 C 0,0 km/h (0 Bft)
19.11.2014 02:15 6,6 C 95 % 1013,0 hPa 0,0 l/m 0,0 km/h (0 Bft) N-NO 28 0 min 0,000 mm 0,0 UV-I 0 W/m 5,9 C 6,6 C 0,0 km/h (0 Bft)
19.11.2014 02:20 6,6 C 95 % 1013,0 hPa 0,0 l/m 0,0 km/h (0 Bft) N-NO 28 0 min 0,000 mm 0,0 UV-I 0 W/m 5,9 C 6,6 C 0,0 km/h (0 Bft)
19.11.2014 02:25 6,6 C 95 % 1013,0 hPa 0,0 l/m 0,0 km/h (0 Bft) N-NO 28 0 min 0,000 mm 0,0 UV-I 0 W/m 5,9 C 6,6 C 0,0 km/h (0 Bft)
19.11.2014 02:30 6,6 C 95 % 1013,0 hPa 0,0 l/m 0,0 km/h (0 Bft) N-NO 28 0 min 0,000 mm 0,0 UV-I 0 W/m 5,9 C 6,6 C 0,0 km/h (0 Bft)
19.11.2014 02:35 6,5 C 95 % 1013,0 hPa 0,0 l/m 0,0 km/h (0 Bft) N-NO 28 0 min 0,000 mm 0,0 UV-I 0 W/m 5,8 C 6,5 C 1,6 km/h (1 Bft)
19.11.2014 02:40 6,5 C 95 % 1013,1 hPa 0,0 l/m 0,0 km/h (0 Bft) N-NO 28 0 min 0,000 mm 0,0 UV-I 0 W/m 5,8 C 6,5 C 0,0 km/h (0 Bft)
19.11.2014 02:45 6,6 C 95 % 1013,1 hPa 0,0 l/m 0,0 km/h (0 Bft) N-NO 28 0 min 0,000 mm 0,0 UV-I 0 W/m 5,9 C 6,6 C 0,0 km/h (0 Bft)
19.11.2014 02:50 6,6 C 95 % 1013,2 hPa 0,0 l/m 0,0 km/h (0 Bft) N-NO 28 0 min 0,000 mm 0,0 UV-I 0 W/m 5,9 C 6,6 C 0,0 km/h (0 Bft)
19.11.2014 02:55 6,6 C 95 % 1013,2 hPa 0,0 l/m 0,0 km/h (0 Bft) N-NO 28 0 min 0,000 mm 0,0 UV-I 0 W/m 5,9 C 6,6 C 0,0 km/h (0 Bft)
19.11.2014 03:00 6,6 C 95 % 1013,3 hPa 0,0 l/m 0,0 km/h (0 Bft) N-NO 28 0 min 0,000 mm 0,0 UV-I 0 W/m 5,9 C 6,6 C 0,0 km/h (0 Bft)
19.11.2014 03:05 6,7 C 95 % 1013,3 hPa 0,0 l/m 0,0 km/h (0 Bft) N-NO 28 0 min 0,000 mm 0,0 UV-I 0 W/m 6,0 C 6,7 C 0,0 km/h (0 Bft)
19.11.2014 03:10 6,6 C 95 % 1013,5 hPa 0,0 l/m 0,0 km/h (0 Bft) N-NO 28 0 min 0,000 mm 0,0 UV-I 0 W/m 5,9 C 6,6 C 1,6 km/h (1 Bft)
19.11.2014 03:15 6,6 C 95 % 1013,5 hPa 0,0 l/m 0,0 km/h (0 Bft) N-NO 28 0 min 0,000 mm 0,0 UV-I 0 W/m 5,9 C 6,6 C 0,0 km/h (0 Bft)
19.11.2014 03:20 6,6 C 95 % 1013,5 hPa 0,0 l/m 0,0 km/h (0 Bft) N-NO 28 0 min 0,000 mm 0,0 UV-I 0 W/m 5,9 C 6,6 C 0,0 km/h (0 Bft)
19.11.2014 03:25 6,6 C 95 % 1013,6 hPa 0,0 l/m 0,0 km/h (0 Bft) N-NO 28 0 min 0,000 mm 0,0 UV-I 0 W/m 5,9 C 6,6 C 0,0 km/h (0 Bft)
19.11.2014 03:30 6,6 C 95 % 1013,6 hPa 0,0 l/m 0,0 km/h (0 Bft) N-NO 28 0 min 0,000 mm 0,0 UV-I 0 W/m 5,9 C 6,6 C 0,0 km/h (0 Bft)
19.11.2014 03:35 6,6 C 95 % 1013,7 hPa 0,0 l/m 0,0 km/h (0 Bft) N-NO 28 0 min 0,000 mm 0,0 UV-I 0 W/m 5,9 C 6,6 C 0,0 km/h (0 Bft)
19.11.2014 03:40 6,6 C 95 % 1013,7 hPa 0,0 l/m 0,0 km/h (0 Bft) N-NO 28 0 min 0,000 mm 0,0 UV-I 0 W/m 5,9 C 6,6 C 0,0 km/h (0 Bft)
19.11.2014 03:45 6,6 C 95 % 1013,7 hPa 0,0 l/m 0,0 km/h (0 Bft) N-NO 28 0 min 0,000 mm 0,0 UV-I 0 W/m 5,9 C 6,6 C 0,0 km/h (0 Bft)
19.11.2014 03:50 6,6 C 95 % 1013,7 hPa 0,0 l/m 0,0 km/h (0 Bft) N-NO 28 0 min 0,000 mm 0,0 UV-I 0 W/m 5,9 C 6,6 C 0,0 km/h (0 Bft)
19.11.2014 03:55 6,6 C 95 % 1013,8 hPa 0,0 l/m 0,0 km/h (0 Bft) N-NO 28 0 min 0,000 mm 0,0 UV-I 0 W/m 5,9 C 6,6 C 0,0 km/h (0 Bft)
19.11.2014 04:00 6,6 C 95 % 1013,9 hPa 0,0 l/m 0,2 km/h (0 Bft) NO 44 0 min 0,000 mm 0,0 UV-I 0 W/m 5,9 C 6,6 C 3,2 km/h (1 Bft)
19.11.2014 04:05 6,5 C 95 % 1013,8 hPa 0,0 l/m 0,0 km/h (0 Bft) NO 44 0 min 0,000 mm 0,0 UV-I 0 W/m 5,8 C 6,5 C 0,0 km/h (0 Bft)
19.11.2014 04:10 6,5 C 95 % 1013,9 hPa 0,0 l/m 0,0 km/h (0 Bft) NO 44 0 min 0,000 mm 0,0 UV-I 0 W/m 5,8 C 6,5 C 0,0 km/h (0 Bft)
19.11.2014 04:15 6,5 C 95 % 1014,0 hPa 0,0 l/m 0,0 km/h (0 Bft) NO 44 0 min 0,000 mm 0,0 UV-I 0 W/m 5,8 C 6,5 C 0,0 km/h (0 Bft)
19.11.2014 04:20 6,5 C 95 % 1014,1 hPa 0,0 l/m 0,0 km/h (0 Bft) NO 44 0 min 0,000 mm 0,0 UV-I 0 W/m 5,8 C 6,5 C 0,0 km/h (0 Bft)
19.11.2014 04:25 6,5 C 95 % 1014,2 hPa 0,0 l/m 0,0 km/h (0 Bft) NO 44 0 min 0,000 mm 0,0 UV-I 0 W/m 5,8 C 6,5 C 0,0 km/h (0 Bft)
19.11.2014 04:30 6,4 C 95 % 1014,2 hPa 0,0 l/m 0,0 km/h (0 Bft) NO 44 0 min 0,000 mm 0,0 UV-I 0 W/m 5,7 C 6,4 C 1,6 km/h (1 Bft)
19.11.2014 04:35 6,4 C 95 % 1014,3 hPa 0,0 l/m 0,0 km/h (0 Bft) NO 44 0 min 0,000 mm 0,0 UV-I 0 W/m 5,7 C 6,4 C 1,6 km/h (1 Bft)
19.11.2014 04:40 6,4 C 96 % 1014,3 hPa 0,0 l/m 0,0 km/h (0 Bft) NO 44 0 min 0,000 mm 0,0 UV-I 0 W/m 5,8 C 6,4 C 0,0 km/h (0 Bft)
19.11.2014 04:45 6,4 C 96 % 1014,4 hPa 0,0 l/m 0,0 km/h (0 Bft) NO 44 0 min 0,000 mm 0,0 UV-I 0 W/m 5,8 C 6,4 C 0,0 km/h (0 Bft)
19.11.2014 04:50 6,4 C 96 % 1014,5 hPa 0,0 l/m 0,0 km/h (0 Bft) NO 44 0 min 0,000 mm 0,0 UV-I 0 W/m 5,8 C 6,4 C 0,0 km/h (0 Bft)
19.11.2014 04:55 6,4 C 96 % 1014,6 hPa 0,0 l/m 0,0 km/h (0 Bft) NO 44 0 min 0,000 mm 0,0 UV-I 0 W/m 5,8 C 6,4 C 0,0 km/h (0 Bft)
19.11.2014 05:00 6,4 C 96 % 1014,7 hPa 0,0 l/m 0,0 km/h (0 Bft) NO 44 0 min 0,000 mm 0,0 UV-I 0 W/m 5,8 C 6,4 C 0,0 km/h (0 Bft)
19.11.2014 05:05 6,3 C 96 % 1014,7 hPa 0,0 l/m 0,0 km/h (0 Bft) NO 44 0 min 0,000 mm 0,0 UV-I 0 W/m 5,7 C 6,3 C 1,6 km/h (1 Bft)
19.11.2014 05:10 6,3 C 95 % 1014,7 hPa 0,0 l/m 0,0 km/h (0 Bft) NO 44 0 min 0,000 mm 0,0 UV-I 0 W/m 5,6 C 6,3 C 0,0 km/h (0 Bft)
19.11.2014 05:15 6,3 C 95 % 1014,8 hPa 0,0 l/m 0,0 km/h (0 Bft) NO 44 0 min 0,000 mm 0,0 UV-I 0 W/m 5,6 C 6,3 C 0,0 km/h (0 Bft)
19.11.2014 05:20 6,3 C 95 % 1014,8 hPa 0,0 l/m 0,0 km/h (0 Bft) NO 44 0 min 0,000 mm 0,0 UV-I 0 W/m 5,6 C 6,3 C 0,0 km/h (0 Bft)
19.11.2014 05:25 6,3 C 95 % 1014,9 hPa 0,0 l/m 0,0 km/h (0 Bft) NO 44 0 min 0,000 mm 0,0 UV-I 0 W/m 5,6 C 6,3 C 0,0 km/h (0 Bft)
19.11.2014 05:30 6,3 C 95 % 1014,9 hPa 0,0 l/m 0,0 km/h (0 Bft) NO 44 0 min 0,000 mm 0,0 UV-I 0 W/m 5,6 C 6,3 C 0,0 km/h (0 Bft)
19.11.2014 05:35 6,3 C 95 % 1014,9 hPa 0,0 l/m 0,0 km/h (0 Bft) NO 44 0 min 0,000 mm 0,0 UV-I 0 W/m 5,6 C 6,3 C 0,0 km/h (0 Bft)
19.11.2014 05:40 6,3 C 95 % 1015,0 hPa 0,0 l/m 0,0 km/h (0 Bft) NO 44 0 min 0,000 mm 0,0 UV-I 0 W/m 5,6 C 6,3 C 0,0 km/h (0 Bft)
19.11.2014 05:45 6,3 C 96 % 1015,1 hPa 0,0 l/m 0,0 km/h (0 Bft) NO 44 0 min 0,000 mm 0,0 UV-I 0 W/m 5,7 C 6,3 C 1,6 km/h (1 Bft)
19.11.2014 05:50 6,3 C 96 % 1015,1 hPa 0,0 l/m 0,2 km/h (0 Bft) W-NW 303 0 min 0,000 mm 0,0 UV-I 0 W/m 5,7 C 6,3 C 3,2 km/h (1 Bft)
19.11.2014 05:55 6,3 C 96 % 1015,2 hPa 0,0 l/m 0,0 km/h (0 Bft) W-NW 303 0 min 0,000 mm 0,0 UV-I 0 W/m 5,7 C 6,3 C 0,0 km/h (0 Bft)
19.11.2014 06:00 6,3 C 96 % 1015,3 hPa 0,0 l/m 0,0 km/h (0 Bft) W-NW 303 0 min 0,000 mm 0,0 UV-I 0 W/m 5,7 C 6,3 C 0,0 km/h (0 Bft)
19.11.2014 06:05 6,3 C 96 % 1015,4 hPa 0,0 l/m 0,0 km/h (0 Bft) W-NW 303 0 min 0,000 mm 0,0 UV-I 0 W/m 5,7 C 6,3 C 0,0 km/h (0 Bft)
19.11.2014 06:10 6,3 C 96 % 1015,5 hPa 0,0 l/m 0,0 km/h (0 Bft) W-NW 303 0 min 0,000 mm 0,0 UV-I 0 W/m 5,7 C 6,3 C 0,0 km/h (0 Bft)
19.11.2014 06:15 6,3 C 96 % 1015,6 hPa 0,0 l/m 0,0 km/h (0 Bft) W-NW 303 0 min 0,000 mm 0,0 UV-I 0 W/m 5,7 C 6,3 C 0,0 km/h (0 Bft)
19.11.2014 06:20 6,3 C 96 % 1015,8 hPa 0,0 l/m 0,0 km/h (0 Bft) W-NW 303 0 min 0,000 mm 0,0 UV-I 0 W/m 5,7 C 6,3 C 1,6 km/h (1 Bft)
19.11.2014 06:25 6,3 C 96 % 1015,8 hPa 0,0 l/m 0,0 km/h (0 Bft) W-NW 303 0 min 0,000 mm 0,0 UV-I 0 W/m 5,7 C 6,3 C 0,0 km/h (0 Bft)
19.11.2014 06:30 6,3 C 96 % 1015,8 hPa 0,0 l/m 0,0 km/h (0 Bft) W-NW 303 0 min 0,000 mm 0,0 UV-I 0 W/m 5,7 C 6,3 C 1,6 km/h (1 Bft)
19.11.2014 06:35 6,3 C 96 % 1015,9 hPa 0,0 l/m 0,0 km/h (0 Bft) W-NW 303 0 min 0,000 mm 0,0 UV-I 0 W/m 5,7 C 6,3 C 0,0 km/h (0 Bft)
19.11.2014 06:40 6,3 C 96 % 1016,0 hPa 0,0 l/m 0,0 km/h (0 Bft) W-NW 303 0 min 0,000 mm 0,0 UV-I 0 W/m 5,7 C 6,3 C 0,0 km/h (0 Bft)
19.11.2014 06:45 6,3 C 96 % 1016,1 hPa 0,0 l/m 0,0 km/h (0 Bft) W-NW 303 0 min 0,000 mm 0,0 UV-I 0 W/m 5,7 C 6,3 C 0,0 km/h (0 Bft)
19.11.2014 06:50 6,4 C 96 % 1016,2 hPa 0,0 l/m 0,0 km/h (0 Bft) W-NW 303 0 min 0,000 mm 0,0 UV-I 0 W/m 5,8 C 6,4 C 0,0 km/h (0 Bft)
19.11.2014 06:55 6,4 C 96 % 1016,2 hPa 0,0 l/m 0,0 km/h (0 Bft) W-NW 303 0 min 0,000 mm 0,0 UV-I 0 W/m 5,8 C 6,4 C 0,0 km/h (0 Bft)
19.11.2014 07:00 6,4 C 96 % 1016,3 hPa 0,0 l/m 0,0 km/h (0 Bft) W-NW 303 0 min 0,000 mm 0,0 UV-I 0 W/m 5,8 C 6,4 C 0,0 km/h (0 Bft)
19.11.2014 07:05 6,4 C 96 % 1016,4 hPa 0,0 l/m 0,0 km/h (0 Bft) W-NW 303 0 min 0,000 mm 0,0 UV-I 0 W/m 5,8 C 6,4 C 0,0 km/h (0 Bft)
19.11.2014 07:10 6,4 C 96 % 1016,5 hPa 0,0 l/m 0,0 km/h (0 Bft) W-NW 303 0 min 0,000 mm 0,0 UV-I 0 W/m 5,8 C 6,4 C 1,6 km/h (1 Bft)
19.11.2014 07:15 6,4 C 96 % 1016,5 hPa 0,0 l/m 0,0 km/h (0 Bft) W-NW 303 0 min 0,000 mm 0,0 UV-I 0 W/m 5,8 C 6,4 C 1,6 km/h (1 Bft)
19.11.2014 07:20 6,4 C 96 % 1016,6 hPa 0,0 l/m 0,0 km/h (0 Bft) W-NW 303 0 min 0,000 mm 0,0 UV-I 0 W/m 5,8 C 6,4 C 1,6 km/h (1 Bft)
19.11.2014 07:25 6,4 C 96 % 1016,8 hPa 0,0 l/m 0,0 km/h (0 Bft) W-NW 303 0 min 0,000 mm 0,0 UV-I 0 W/m 5,8 C 6,4 C 1,6 km/h (1 Bft)
19.11.2014 07:30 6,4 C 96 % 1016,9 hPa 0,0 l/m 0,0 km/h (0 Bft) W-NW 303 0 min 0,000 mm 0,0 UV-I 0 W/m 5,8 C 6,4 C 1,6 km/h (1 Bft)
19.11.2014 07:35 6,4 C 96 % 1016,9 hPa 0,0 l/m 0,1 km/h (0 Bft) W-NW 303 0 min 0,000 mm 0,0 UV-I 0 W/m 5,8 C 6,4 C 1,6 km/h (1 Bft)
19.11.2014 07:40 6,4 C 96 % 1016,9 hPa 0,0 l/m 0,0 km/h (0 Bft) W-NW 303 0 min 0,000 mm 0,0 UV-I 0 W/m 5,8 C 6,4 C 1,6 km/h (1 Bft)
19.11.2014 07:45 6,4 C 96 % 1017,0 hPa 0,0 l/m 0,0 km/h (0 Bft) W-NW 303 0 min 0,000 mm 0,0 UV-I 0 W/m 5,8 C 6,4 C 0,0 km/h (0 Bft)
19.11.2014 07:50 6,4 C 96 % 1017,0 hPa 0,0 l/m 0,0 km/h (0 Bft) W-NW 303 0 min 0,000 mm 0,0 UV-I 0 W/m 5,8 C 6,4 C 0,0 km/h (0 Bft)
19.11.2014 07:55 6,4 C 96 % 1017,1 hPa 0,0 l/m 0,0 km/h (0 Bft) W-NW 303 0 min 0,000 mm 0,0 UV-I 0 W/m 5,8 C 6,4 C 0,0 km/h (0 Bft)
19.11.2014 08:00 6,4 C 96 % 1017,2 hPa 0,0 l/m 0,0 km/h (0 Bft) W-NW 303 0 min 0,000 mm 0,0 UV-I 0 W/m 5,8 C 6,4 C 0,0 km/h (0 Bft)
19.11.2014 08:05 6,4 C 96 % 1017,3 hPa 0,0 l/m 0,0 km/h (0 Bft) W-NW 303 0 min 0,000 mm 0,0 UV-I 0 W/m 5,8 C 6,4 C 0,0 km/h (0 Bft)
19.11.2014 08:10 6,4 C 96 % 1017,3 hPa 0,0 l/m 0,0 km/h (0 Bft) W-NW 303 0 min 0,000 mm 0,0 UV-I 6 W/m 5,8 C 6,4 C 0,0 km/h (0 Bft)
19.11.2014 08:15 6,4 C 96 % 1017,4 hPa 0,0 l/m 0,0 km/h (0 Bft) W-NW 303 0 min 0,000 mm 0,0 UV-I 8 W/m 5,8 C 6,4 C 0,0 km/h (0 Bft)
19.11.2014 08:20 6,3 C 96 % 1017,4 hPa 0,0 l/m 0,0 km/h (0 Bft) W-NW 303 0 min 0,000 mm 0,0 UV-I 10 W/m 5,7 C 6,3 C 0,0 km/h (0 Bft)
19.11.2014 08:25 6,3 C 96 % 1017,5 hPa 0,0 l/m 0,0 km/h (0 Bft) W-NW 303 0 min 0,000 mm 0,0 UV-I 13 W/m 5,7 C 6,3 C 0,0 km/h (0 Bft)
19.11.2014 08:30 6,3 C 96 % 1017,6 hPa 0,0 l/m 0,0 km/h (0 Bft) W-NW 303 0 min 0,000 mm 0,0 UV-I 16 W/m 5,7 C 6,3 C 0,0 km/h (0 Bft)
19.11.2014 08:35 6,3 C 96 % 1017,6 hPa 0,0 l/m 0,0 km/h (0 Bft) W-NW 303 0 min 0,000 mm 0,0 UV-I 19 W/m 5,7 C 6,3 C 0,0 km/h (0 Bft)
19.11.2014 08:40 6,3 C 96 % 1017,7 hPa 0,0 l/m 0,0 km/h (0 Bft) W-NW 303 0 min 0,000 mm 0,0 UV-I 21 W/m 5,7 C 6,3 C 0,0 km/h (0 Bft)
19.11.2014 08:45 6,3 C 96 % 1017,9 hPa 0,0 l/m 0,0 km/h (0 Bft) W-NW 303 0 min 0,000 mm 0,0 UV-I 20 W/m 5,7 C 6,3 C 0,0 km/h (0 Bft)
19.11.2014 08:50 6,3 C 96 % 1018,0 hPa 0,0 l/m 0,0 km/h (0 Bft) W-NW 303 0 min 0,000 mm 0,0 UV-I 19 W/m 5,7 C 6,3 C 0,0 km/h (0 Bft)
19.11.2014 08:55 6,3 C 96 % 1018,0 hPa 0,0 l/m 0,0 km/h (0 Bft) W-NW 303 0 min 0,000 mm 0,0 UV-I 21 W/m 5,7 C 6,3 C 0,0 km/h (0 Bft)
19.11.2014 09:00 6,3 C 96 % 1018,2 hPa 0,0 l/m 0,0 km/h (0 Bft) W-NW 303 0 min 0,000 mm 0,0 UV-I 22 W/m 5,7 C 6,3 C 0,0 km/h (0 Bft)
19.11.2014 09:05 6,3 C 96 % 1018,3 hPa 0,0 l/m 0,0 km/h (0 Bft) W-NW 303 0 min 0,000 mm 0,0 UV-I 24 W/m 5,7 C 6,3 C 0,0 km/h (0 Bft)
19.11.2014 09:10 6,4 C 96 % 1018,4 hPa 0,0 l/m 0,2 km/h (0 Bft) W-NW 303 0 min 0,000 mm 0,0 UV-I 24 W/m 5,8 C 6,4 C 3,2 km/h (1 Bft)
19.11.2014 09:15 6,4 C 96 % 1018,5 hPa 0,0 l/m 0,4 km/h (0 Bft) S-SW 205 0 min 0,000 mm 0,0 UV-I 19 W/m 5,8 C 6,4 C 3,2 km/h (1 Bft)
19.11.2014 09:20 6,5 C 96 % 1018,4 hPa 0,0 l/m 0,7 km/h (0 Bft) S-SW 203 0 min 0,000 mm 0,0 UV-I 23 W/m 5,9 C 6,5 C 6,4 km/h (2 Bft)
19.11.2014 09:25 6,5 C 96 % 1018,4 hPa 0,0 l/m 0,2 km/h (0 Bft) S-SW 203 0 min 0,000 mm 0,0 UV-I 30 W/m 5,9 C 6,5 C 3,2 km/h (1 Bft)
19.11.2014 09:30 6,4 C 96 % 1018,5 hPa 0,0 l/m 0,0 km/h (0 Bft) S-SW 203 0 min 0,000 mm 0,0 UV-I 34 W/m 5,8 C 6,4 C 1,6 km/h (1 Bft)
19.11.2014 09:35 6,4 C 96 % 1018,5 hPa 0,0 l/m 0,0 km/h (0 Bft) S-SW 203 0 min 0,000 mm 0,0 UV-I 39 W/m 5,8 C 6,4 C 1,6 km/h (1 Bft)
19.11.2014 09:40 6,4 C 96 % 1018,6 hPa 0,0 l/m 0,0 km/h (0 Bft) S-SW 204 0 min 0,000 mm 0,0 UV-I 42 W/m 5,8 C 6,4 C 0,0 km/h (0 Bft)
19.11.2014 09:45 6,5 C 96 % 1018,7 hPa 0,0 l/m 0,2 km/h (0 Bft) S-SW 204 0 min 0,000 mm 0,0 UV-I 46 W/m 5,9 C 6,5 C 3,2 km/h (1 Bft)
19.11.2014 09:50 6,5 C 96 % 1018,8 hPa 0,0 l/m 0,0 km/h (0 Bft) S-SW 204 0 min 0,000 mm 0,0 UV-I 45 W/m 5,9 C 6,5 C 1,6 km/h (1 Bft)
19.11.2014 09:55 6,6 C 96 % 1018,8 hPa 0,0 l/m 0,5 km/h (0 Bft) S-SW 210 0 min 0,000 mm 0,0 UV-I 43 W/m 6,0 C 6,6 C 3,2 km/h (1 Bft)
19.11.2014 10:00 6,6 C 96 % 1018,9 hPa 0,0 l/m 0,3 km/h (0 Bft) W-SW 248 0 min 0,025 mm 0,0 UV-I 43 W/m 6,0 C 6,6 C 3,2 km/h (1 Bft)
19.11.2014 10:05 6,6 C 96 % 1018,9 hPa 0,0 l/m 0,7 km/h (0 Bft) W-SW 248 0 min 0,000 mm 0,0 UV-I 47 W/m 6,0 C 6,6 C 3,2 km/h (1 Bft)
19.11.2014 10:10 6,6 C 96 % 1019,0 hPa 0,0 l/m 0,1 km/h (0 Bft) W-SW 248 0 min 0,000 mm 0,0 UV-I 53 W/m 6,0 C 6,6 C 1,6 km/h (1 Bft)
19.11.2014 10:15 6,6 C 96 % 1019,0 hPa 0,0 l/m 0,2 km/h (0 Bft) W-SW 248 0 min 0,000 mm 0,0 UV-I 54 W/m 6,0 C 6,6 C 3,2 km/h (1 Bft)
19.11.2014 10:20 6,6 C 96 % 1019,1 hPa 0,0 l/m 0,0 km/h (0 Bft) W-SW 248 0 min 0,000 mm 0,0 UV-I 56 W/m 6,0 C 6,6 C 0,0 km/h (0 Bft)
19.11.2014 10:25 6,6 C 96 % 1019,2 hPa 0,0 l/m 0,3 km/h (0 Bft) W-SW 248 0 min 0,000 mm 0,0 UV-I 53 W/m 6,0 C 6,6 C 3,2 km/h (1 Bft)
19.11.2014 10:30 6,7 C 96 % 1019,3 hPa 0,0 l/m 0,3 km/h (0 Bft) W-SW 248 0 min 0,000 mm 0,0 UV-I 53 W/m 6,1 C 6,7 C 1,6 km/h (1 Bft)
19.11.2014 10:35 6,7 C 96 % 1019,3 hPa 0,0 l/m 0,7 km/h (0 Bft) W-SW 248 0 min 0,000 mm 0,0 UV-I 53 W/m 6,1 C 6,7 C 3,2 km/h (1 Bft)
19.11.2014 10:40 6,8 C 96 % 1019,3 hPa 0,0 l/m 0,4 km/h (0 Bft) W-SW 248 0 min 0,000 mm 0,0 UV-I 61 W/m 6,2 C 6,8 C 3,2 km/h (1 Bft)
19.11.2014 10:45 6,8 C 95 % 1019,4 hPa 0,0 l/m 0,0 km/h (0 Bft) W-SW 248 0 min 0,000 mm 0,0 UV-I 65 W/m 6,1 C 6,8 C 1,6 km/h (1 Bft)
19.11.2014 10:50 6,8 C 95 % 1019,4 hPa 0,0 l/m 0,1 km/h (0 Bft) W-SW 248 0 min 0,000 mm 0,0 UV-I 68 W/m 6,1 C 6,8 C 1,6 km/h (1 Bft)
19.11.2014 10:55 6,9 C 95 % 1019,5 hPa 0,0 l/m 0,8 km/h (0 Bft) W-SW 248 0 min 0,000 mm 0,0 UV-I 63 W/m 6,2 C 6,9 C 4,8 km/h (1 Bft)
19.11.2014 11:00 6,9 C 95 % 1019,6 hPa 0,0 l/m 0,4 km/h (0 Bft) W-SW 248 0 min 0,026 mm 0,0 UV-I 58 W/m 6,2 C 6,9 C 3,2 km/h (1 Bft)
19.11.2014 11:05 7,0 C 95 % 1019,6 hPa 0,0 l/m 0,5 km/h (0 Bft) W-SW 248 0 min 0,000 mm 0,0 UV-I 54 W/m 6,3 C 7,0 C 3,2 km/h (1 Bft)
19.11.2014 11:10 7,0 C 95 % 1019,7 hPa 0,0 l/m 0,0 km/h (0 Bft) W-SW 248 0 min 0,000 mm 0,0 UV-I 50 W/m 6,3 C 7,0 C 1,6 km/h (1 Bft)
19.11.2014 11:15 7,1 C 95 % 1019,8 hPa 0,0 l/m 0,0 km/h (0 Bft) SW 234 0 min 0,000 mm 0,0 UV-I 48 W/m 6,4 C 7,1 C 1,6 km/h (1 Bft)
19.11.2014 11:20 7,1 C 95 % 1019,8 hPa 0,0 l/m 0,2 km/h (0 Bft) W-SW 240 0 min 0,000 mm 0,0 UV-I 54 W/m 6,4 C 7,1 C 1,6 km/h (1 Bft)
19.11.2014 11:25 7,1 C 94 % 1019,9 hPa 0,0 l/m 0,0 km/h (0 Bft) W-SW 240 0 min 0,000 mm 0,0 UV-I 55 W/m 6,2 C 7,1 C 1,6 km/h (1 Bft)
19.11.2014 11:30 7,1 C 94 % 1019,9 hPa 0,0 l/m 0,2 km/h (0 Bft) W-SW 252 0 min 0,000 mm 0,0 UV-I 53 W/m 6,2 C 7,1 C 3,2 km/h (1 Bft)
19.11.2014 11:35 7,2 C 94 % 1019,9 hPa 0,0 l/m 0,8 km/h (0 Bft) W-SW 251 0 min 0,000 mm 0,0 UV-I 51 W/m 6,3 C 7,2 C 3,2 km/h (1 Bft)
19.11.2014 11:40 7,2 C 94 % 1019,9 hPa 0,0 l/m 0,1 km/h (0 Bft) W-SW 251 0 min 0,000 mm 0,0 UV-I 65 W/m 6,3 C 7,2 C 1,6 km/h (1 Bft)
19.11.2014 11:45 7,2 C 94 % 1019,9 hPa 0,0 l/m 0,0 km/h (0 Bft) W-SW 251 0 min 0,000 mm 0,1 UV-I 72 W/m 6,3 C 7,2 C 1,6 km/h (1 Bft)
19.11.2014 11:50 7,3 C 94 % 1019,9 hPa 0,0 l/m 0,8 km/h (0 Bft) W-SW 251 0 min 0,000 mm 0,5 UV-I 78 W/m 6,4 C 7,3 C 3,2 km/h (1 Bft)
19.11.2014 11:55 7,3 C 94 % 1019,9 hPa 0,0 l/m 0,1 km/h (0 Bft) W-SW 251 0 min 0,000 mm 0,1 UV-I 75 W/m 6,4 C 7,3 C 1,6 km/h (1 Bft)
19.11.2014 12:00 7,4 C 94 % 1019,9 hPa 0,0 l/m 0,2 km/h (0 Bft) W-SW 251 0 min 0,025 mm 0,5 UV-I 82 W/m 6,5 C 7,4 C 3,2 km/h (1 Bft)
19.11.2014 12:05 7,5 C 94 % 1019,9 hPa 0,0 l/m 0,2 km/h (0 Bft) W-SW 250 0 min 0,000 mm 0,5 UV-I 87 W/m 6,6 C 7,5 C 3,2 km/h (1 Bft)
19.11.2014 12:10 7,5 C 93 % 1019,9 hPa 0,0 l/m 0,6 km/h (0 Bft) W-SW 250 0 min 0,000 mm 0,5 UV-I 90 W/m 6,4 C 7,5 C 3,2 km/h (1 Bft)
19.11.2014 12:15 7,6 C 93 % 1020,0 hPa 0,0 l/m 0,1 km/h (0 Bft) W-SW 250 0 min 0,000 mm 0,3 UV-I 79 W/m 6,5 C 7,6 C 1,6 km/h (1 Bft)
19.11.2014 12:20 7,6 C 93 % 1020,1 hPa 0,0 l/m 0,0 km/h (0 Bft) W-SW 250 0 min 0,000 mm 0,5 UV-I 80 W/m 6,5 C 7,6 C 1,6 km/h (1 Bft)
19.11.2014 12:25 7,7 C 93 % 1020,1 hPa 0,0 l/m 0,0 km/h (0 Bft) W-SW 250 0 min 0,000 mm 0,5 UV-I 85 W/m 6,6 C 7,7 C 1,6 km/h (1 Bft)
19.11.2014 12:30 7,7 C 93 % 1020,1 hPa 0,0 l/m 0,0 km/h (0 Bft) W-SW 250 0 min 0,000 mm 0,5 UV-I 92 W/m 6,6 C 7,7 C 1,6 km/h (1 Bft)
19.11.2014 12:35 7,7 C 92 % 1020,0 hPa 0,0 l/m 0,2 km/h (0 Bft) W-SW 250 0 min 0,000 mm 0,5 UV-I 99 W/m 6,5 C 7,7 C 3,2 km/h (1 Bft)
19.11.2014 12:40 7,7 C 92 % 1020,1 hPa 0,0 l/m 0,4 km/h (0 Bft) W-SW 250 0 min 0,000 mm 0,5 UV-I 96 W/m 6,5 C 7,7 C 3,2 km/h (1 Bft)
19.11.2014 12:45 7,8 C 93 % 1020,2 hPa 0,0 l/m 0,4 km/h (0 Bft) W-SW 250 0 min 0,000 mm 0,5 UV-I 96 W/m 6,7 C 7,8 C 3,2 km/h (1 Bft)
19.11.2014 12:50 7,8 C 92 % 1020,2 hPa 0,0 l/m 0,4 km/h (0 Bft) W-SW 250 0 min 0,000 mm 0,4 UV-I 85 W/m 6,6 C 7,8 C 3,2 km/h (1 Bft)
19.11.2014 12:55 7,9 C 92 % 1020,1 hPa 0,0 l/m 0,1 km/h (0 Bft) W-SW 250 0 min 0,000 mm 0,4 UV-I 92 W/m 6,7 C 7,9 C 1,6 km/h (1 Bft)
19.11.2014 13:00 7,9 C 92 % 1020,3 hPa 0,0 l/m 0,8 km/h (0 Bft) SW 236 0 min 0,051 mm 0,5 UV-I 106 W/m 6,7 C 7,9 C 3,2 km/h (1 Bft)
19.11.2014 13:05 8,0 C 92 % 1020,3 hPa 0,0 l/m 0,3 km/h (0 Bft) SW 229 0 min 0,000 mm 0,5 UV-I 98 W/m 6,8 C 8,0 C 3,2 km/h (1 Bft)
19.11.2014 13:10 8,1 C 92 % 1020,3 hPa 0,0 l/m 0,1 km/h (0 Bft) SW 229 0 min 0,000 mm 0,5 UV-I 100 W/m 6,9 C 8,1 C 3,2 km/h (1 Bft)
19.11.2014 13:15 8,1 C 92 % 1020,4 hPa 0,0 l/m 0,1 km/h (0 Bft) SW 229 0 min 0,000 mm 0,5 UV-I 106 W/m 6,9 C 8,1 C 1,6 km/h (1 Bft)
19.11.2014 13:20 8,2 C 92 % 1020,4 hPa 0,0 l/m 0,0 km/h (0 Bft) SW 229 0 min 0,000 mm 0,5 UV-I 102 W/m 7,0 C 8,2 C 0,0 km/h (0 Bft)
19.11.2014 13:25 8,2 C 91 % 1020,5 hPa 0,0 l/m 1,1 km/h (1 Bft) W-SW 252 0 min 0,000 mm 0,4 UV-I 89 W/m 6,8 C 8,2 C 6,4 km/h (2 Bft)
19.11.2014 13:30 8,2 C 91 % 1020,5 hPa 0,0 l/m 1,3 km/h (1 Bft) W-SW 245 0 min 0,000 mm 0,0 UV-I 79 W/m 6,8 C 8,2 C 4,8 km/h (1 Bft)
19.11.2014 13:35 8,3 C 91 % 1020,5 hPa 0,0 l/m 0,0 km/h (0 Bft) W-SW 245 0 min 0,000 mm 0,1 UV-I 83 W/m 6,9 C 8,3 C 1,6 km/h (1 Bft)
19.11.2014 13:40 8,3 C 91 % 1020,4 hPa 0,0 l/m 0,1 km/h (0 Bft) W-SW 245 0 min 0,000 mm 0,4 UV-I 89 W/m 6,9 C 8,3 C 1,6 km/h (1 Bft)
19.11.2014 13:45 8,3 C 91 % 1020,5 hPa 0,0 l/m 0,1 km/h (0 Bft) W-SW 245 0 min 0,000 mm 0,2 UV-I 84 W/m 6,9 C 8,3 C 1,6 km/h (1 Bft)
19.11.2014 13:50 8,3 C 91 % 1020,5 hPa 0,0 l/m 0,5 km/h (0 Bft) W-SW 245 0 min 0,000 mm 0,0 UV-I 82 W/m 6,9 C 8,3 C 4,8 km/h (1 Bft)
19.11.2014 13:55 8,3 C 91 % 1020,5 hPa 0,0 l/m 0,1 km/h (0 Bft) W-SW 256 0 min 0,000 mm 0,3 UV-I 93 W/m 6,9 C 8,3 C 1,6 km/h (1 Bft)
19.11.2014 14:00 8,4 C 90 % 1020,6 hPa 0,0 l/m 0,2 km/h (0 Bft) W-SW 255 0 min 0,051 mm 0,0 UV-I 87 W/m 6,9 C 8,4 C 3,2 km/h (1 Bft)
19.11.2014 14:05 8,4 C 90 % 1020,7 hPa 0,0 l/m 0,9 km/h (0 Bft) W 261 0 min 0,000 mm 0,0 UV-I 73 W/m 6,9 C 8,4 C 6,4 km/h (2 Bft)
19.11.2014 14:10 8,4 C 90 % 1020,9 hPa 0,0 l/m 1,2 km/h (1 Bft) W-SW 238 0 min 0,000 mm 0,0 UV-I 51 W/m 6,9 C 8,4 C 4,8 km/h (1 Bft)
19.11.2014 14:15 8,4 C 90 % 1021,0 hPa 0,0 l/m 3,7 km/h (1 Bft) W 263 0 min 0,000 mm 0,0 UV-I 46 W/m 6,9 C 8,4 C 8,0 km/h (2 Bft)
19.11.2014 14:20 8,3 C 89 % 1021,2 hPa 0,0 l/m 4,0 km/h (1 Bft) W-NW 295 0 min 0,000 mm 0,0 UV-I 35 W/m 6,6 C 8,3 C 8,0 km/h (2 Bft)
19.11.2014 14:25 8,3 C 89 % 1021,2 hPa 0,0 l/m 2,8 km/h (1 Bft) W-NW 299 0 min 0,000 mm 0,0 UV-I 46 W/m 6,6 C 8,3 C 8,0 km/h (2 Bft)
19.11.2014 14:30 8,3 C 89 % 1021,3 hPa 0,0 l/m 0,9 km/h (0 Bft) W-NW 298 0 min 0,000 mm 0,0 UV-I 54 W/m 6,6 C 8,3 C 3,2 km/h (1 Bft)
19.11.2014 14:35 8,3 C 90 % 1021,2 hPa 0,0 l/m 0,4 km/h (0 Bft) W-NW 298 0 min 0,000 mm 0,0 UV-I 44 W/m 6,8 C 8,3 C 4,8 km/h (1 Bft)
19.11.2014 14:40 8,3 C 89 % 1021,2 hPa 0,0 l/m 1,2 km/h (1 Bft) W-NW 294 0 min 0,000 mm 0,0 UV-I 45 W/m 6,6 C 8,3 C 4,8 km/h (1 Bft)
19.11.2014 14:45 8,3 C 90 % 1021,3 hPa 0,0 l/m 0,2 km/h (0 Bft) W-SW 244 0 min 0,000 mm 0,0 UV-I 46 W/m 6,8 C 8,3 C 3,2 km/h (1 Bft)
19.11.2014 14:50 8,3 C 89 % 1021,4 hPa 0,0 l/m 1,1 km/h (1 Bft) W 281 0 min 0,000 mm 0,0 UV-I 41 W/m 6,6 C 8,3 C 4,8 km/h (1 Bft)
19.11.2014 14:55 8,2 C 89 % 1021,4 hPa 0,0 l/m 1,3 km/h (1 Bft) W 264 0 min 0,000 mm 0,0 UV-I 40 W/m 6,5 C 8,2 C 6,4 km/h (2 Bft)
19.11.2014 15:00 8,2 C 89 % 1021,5 hPa 0,0 l/m 3,4 km/h (1 Bft) W-NW 295 0 min 0,025 mm 0,0 UV-I 47 W/m 6,5 C 8,2 C 6,4 km/h (2 Bft)
19.11.2014 15:05 8,2 C 89 % 1021,4 hPa 0,0 l/m 1,6 km/h (1 Bft) W 261 0 min 0,000 mm 0,0 UV-I 55 W/m 6,5 C 8,2 C 4,8 km/h (1 Bft)
19.11.2014 15:10 8,3 C 89 % 1021,4 hPa 0,0 l/m 0,8 km/h (0 Bft) W 262 0 min 0,000 mm 0,0 UV-I 62 W/m 6,6 C 8,3 C 3,2 km/h (1 Bft)
19.11.2014 15:15 8,3 C 89 % 1021,4 hPa 0,0 l/m 0,5 km/h (0 Bft) W 263 0 min 0,000 mm 0,0 UV-I 53 W/m 6,6 C 8,3 C 3,2 km/h (1 Bft)
19.11.2014 15:20 8,3 C 89 % 1021,3 hPa 0,0 l/m 0,6 km/h (0 Bft) W 261 0 min 0,000 mm 0,0 UV-I 49 W/m 6,6 C 8,3 C 3,2 km/h (1 Bft)
19.11.2014 15:25 8,3 C 89 % 1021,4 hPa 0,0 l/m 0,1 km/h (0 Bft) W 261 0 min 0,000 mm 0,0 UV-I 38 W/m 6,6 C 8,3 C 1,6 km/h (1 Bft)
19.11.2014 15:30 8,3 C 89 % 1021,5 hPa 0,0 l/m 0,3 km/h (0 Bft) W 261 0 min 0,000 mm 0,0 UV-I 25 W/m 6,6 C 8,3 C 3,2 km/h (1 Bft)
19.11.2014 15:35 8,3 C 89 % 1021,5 hPa 0,0 l/m 0,1 km/h (0 Bft) W 261 0 min 0,000 mm 0,0 UV-I 19 W/m 6,6 C 8,3 C 1,6 km/h (1 Bft)
19.11.2014 15:40 8,3 C 89 % 1021,6 hPa 0,0 l/m 0,3 km/h (0 Bft) W 271 0 min 0,000 mm 0,0 UV-I 15 W/m 6,6 C 8,3 C 3,2 km/h (1 Bft)
19.11.2014 15:45 8,3 C 89 % 1021,7 hPa 0,0 l/m 0,1 km/h (0 Bft) W 271 0 min 0,000 mm 0,0 UV-I 10 W/m 6,6 C 8,3 C 3,2 km/h (1 Bft)
19.11.2014 15:50 8,3 C 89 % 1021,7 hPa 0,0 l/m 0,0 km/h (0 Bft) W 271 0 min 0,000 mm 0,0 UV-I 8 W/m 6,6 C 8,3 C 1,6 km/h (1 Bft)
19.11.2014 15:55 8,2 C 90 % 1021,8 hPa 0,0 l/m 0,0 km/h (0 Bft) W 271 0 min 0,000 mm 0,0 UV-I 2 W/m 6,7 C 8,2 C 1,6 km/h (1 Bft)
19.11.2014 16:00 8,2 C 90 % 1021,9 hPa 0,0 l/m 0,0 km/h (0 Bft) W 271 0 min 0,026 mm 0,0 UV-I 0 W/m 6,7 C 8,2 C 0,0 km/h (0 Bft)
19.11.2014 16:05 8,2 C 90 % 1022,0 hPa 0,0 l/m 0,1 km/h (0 Bft) NO 54 0 min 0,000 mm 0,0 UV-I 0 W/m 6,7 C 8,2 C 1,6 km/h (1 Bft)
19.11.2014 16:10 8,1 C 90 % 1022,0 hPa 0,0 l/m 0,1 km/h (0 Bft) NO 54 0 min 0,000 mm 0,0 UV-I 0 W/m 6,6 C 8,1 C 1,6 km/h (1 Bft)
19.11.2014 16:15 8,0 C 90 % 1022,1 hPa 0,0 l/m 0,0 km/h (0 Bft) NO 54 0 min 0,000 mm 0,0 UV-I 0 W/m 6,5 C 8,0 C 1,6 km/h (1 Bft)
19.11.2014 16:20 7,9 C 90 % 1022,1 hPa 0,0 l/m 0,9 km/h (0 Bft) NO 56 0 min 0,000 mm 0,0 UV-I 0 W/m 6,4 C 7,9 C 6,4 km/h (2 Bft)
19.11.2014 16:25 7,8 C 91 % 1022,2 hPa 0,0 l/m 0,6 km/h (0 Bft) NO 38 0 min 0,000 mm 0,0 UV-I 0 W/m 6,4 C 7,8 C 4,8 km/h (1 Bft)
19.11.2014 16:30 7,7 C 91 % 1022,3 hPa 0,0 l/m 0,3 km/h (0 Bft) O-NO 68 0 min 0,000 mm 0,0 UV-I 0 W/m 6,3 C 7,7 C 3,2 km/h (1 Bft)
19.11.2014 16:35 7,6 C 91 % 1022,4 hPa 0,0 l/m 0,5 km/h (0 Bft) O-NO 68 0 min 0,000 mm 0,0 UV-I 0 W/m 6,2 C 7,6 C 3,2 km/h (1 Bft)
19.11.2014 16:40 7,6 C 92 % 1022,6 hPa 0,0 l/m 0,1 km/h (0 Bft) O-NO 68 0 min 0,000 mm 0,0 UV-I 0 W/m 6,4 C 7,6 C 1,6 km/h (1 Bft)
19.11.2014 16:45 7,6 C 92 % 1022,8 hPa 0,0 l/m 0,0 km/h (0 Bft) O-NO 68 0 min 0,000 mm 0,0 UV-I 0 W/m 6,4 C 7,6 C 0,0 km/h (0 Bft)
19.11.2014 16:50 7,6 C 92 % 1022,8 hPa 0,0 l/m 0,0 km/h (0 Bft) O-NO 68 0 min 0,000 mm 0,0 UV-I 0 W/m 6,4 C 7,6 C 1,6 km/h (1 Bft)
19.11.2014 16:55 7,6 C 92 % 1022,8 hPa 0,0 l/m 0,0 km/h (0 Bft) O-NO 68 0 min 0,000 mm 0,0 UV-I 0 W/m 6,4 C 7,6 C 0,0 km/h (0 Bft)
19.11.2014 17:00 7,5 C 92 % 1022,8 hPa 0,0 l/m 0,0 km/h (0 Bft) O-NO 68 0 min 0,000 mm 0,0 UV-I 0 W/m 6,3 C 7,5 C 0,0 km/h (0 Bft)
19.11.2014 17:05 7,5 C 92 % 1022,9 hPa 0,0 l/m 0,0 km/h (0 Bft) O-NO 68 0 min 0,000 mm 0,0 UV-I 0 W/m 6,3 C 7,5 C 0,0 km/h (0 Bft)
19.11.2014 17:10 7,5 C 92 % 1022,9 hPa 0,0 l/m 0,0 km/h (0 Bft) O-NO 68 0 min 0,000 mm 0,0 UV-I 0 W/m 6,3 C 7,5 C 0,0 km/h (0 Bft)
19.11.2014 17:15 7,5 C 92 % 1023,0 hPa 0,0 l/m 0,0 km/h (0 Bft) O-NO 68 0 min 0,000 mm 0,0 UV-I 0 W/m 6,3 C 7,5 C 0,0 km/h (0 Bft)
19.11.2014 17:20 7,5 C 92 % 1023,0 hPa 0,0 l/m 0,0 km/h (0 Bft) O-NO 68 0 min 0,000 mm 0,0 UV-I 0 W/m 6,3 C 7,5 C 0,0 km/h (0 Bft)
19.11.2014 17:25 7,4 C 92 % 1022,9 hPa 0,0 l/m 0,0 km/h (0 Bft) O-NO 68 0 min 0,000 mm 0,0 UV-I 0 W/m 6,2 C 7,4 C 1,6 km/h (1 Bft)
19.11.2014 17:30 7,4 C 93 % 1022,9 hPa 0,0 l/m 0,0 km/h (0 Bft) O-NO 68 0 min 0,000 mm 0,0 UV-I 0 W/m 6,3 C 7,4 C 0,0 km/h (0 Bft)
19.11.2014 17:35 7,4 C 93 % 1023,0 hPa 0,0 l/m 0,0 km/h (0 Bft) O-NO 68 0 min 0,000 mm 0,0 UV-I 0 W/m 6,3 C 7,4 C 0,0 km/h (0 Bft)
19.11.2014 17:40 7,3 C 92 % 1023,0 hPa 0,0 l/m 0,0 km/h (0 Bft) O-NO 68 0 min 0,000 mm 0,0 UV-I 0 W/m 6,1 C 7,3 C 1,6 km/h (1 Bft)
19.11.2014 17:45 7,3 C 92 % 1023,1 hPa 0,0 l/m 0,0 km/h (0 Bft) O-NO 68 0 min 0,000 mm 0,0 UV-I 0 W/m 6,1 C 7,3 C 0,0 km/h (0 Bft)
19.11.2014 17:50 7,3 C 93 % 1023,1 hPa 0,0 l/m 0,0 km/h (0 Bft) O-NO 68 0 min 0,000 mm 0,0 UV-I 0 W/m 6,2 C 7,3 C 0,0 km/h (0 Bft)
19.11.2014 17:55 7,3 C 93 % 1023,1 hPa 0,0 l/m 0,0 km/h (0 Bft) O-NO 68 0 min 0,000 mm 0,0 UV-I 0 W/m 6,2 C 7,3 C 0,0 km/h (0 Bft)
19.11.2014 18:00 7,3 C 93 % 1023,0 hPa 0,0 l/m 0,0 km/h (0 Bft) O-NO 68 0 min 0,000 mm 0,0 UV-I 0 W/m 6,2 C 7,3 C 1,6 km/h (1 Bft)
19.11.2014 18:05 7,3 C 93 % 1023,0 hPa 0,0 l/m 0,1 km/h (0 Bft) O-NO 68 0 min 0,000 mm 0,0 UV-I 0 W/m 6,2 C 7,3 C 1,6 km/h (1 Bft)
19.11.2014 18:10 7,2 C 93 % 1023,0 hPa 0,0 l/m 0,0 km/h (0 Bft) O-NO 68 0 min 0,000 mm 0,0 UV-I 0 W/m 6,1 C 7,2 C 1,6 km/h (1 Bft)
19.11.2014 18:15 7,2 C 93 % 1023,0 hPa 0,0 l/m 0,4 km/h (0 Bft) O-NO 68 0 min 0,000 mm 0,0 UV-I 0 W/m 6,1 C 7,2 C 3,2 km/h (1 Bft)
19.11.2014 18:20 7,2 C 93 % 1023,0 hPa 0,0 l/m 0,2 km/h (0 Bft) O-NO 68 0 min 0,000 mm 0,0 UV-I 0 W/m 6,1 C 7,2 C 1,6 km/h (1 Bft)
19.11.2014 18:25 7,2 C 94 % 1023,1 hPa 0,0 l/m 0,0 km/h (0 Bft) O-NO 68 0 min 0,000 mm 0,0 UV-I 0 W/m 6,3 C 7,2 C 0,0 km/h (0 Bft)
19.11.2014 18:30 7,1 C 94 % 1023,1 hPa 0,0 l/m 0,3 km/h (0 Bft) O-NO 68 0 min 0,000 mm 0,0 UV-I 0 W/m 6,2 C 7,1 C 4,8 km/h (1 Bft)
19.11.2014 18:35 7,1 C 94 % 1023,1 hPa 0,0 l/m 0,0 km/h (0 Bft) O-NO 68 0 min 0,000 mm 0,0 UV-I 0 W/m 6,2 C 7,1 C 1,6 km/h (1 Bft)
19.11.2014 18:40 7,1 C 94 % 1023,3 hPa 0,0 l/m 0,0 km/h (0 Bft) O-NO 68 0 min 0,000 mm 0,0 UV-I 0 W/m 6,2 C 7,1 C 1,6 km/h (1 Bft)
19.11.2014 18:45 7,1 C 94 % 1023,3 hPa 0,0 l/m 0,0 km/h (0 Bft) O-NO 68 0 min 0,000 mm 0,0 UV-I 0 W/m 6,2 C 7,1 C 0,0 km/h (0 Bft)
19.11.2014 18:50 7,1 C 94 % 1023,3 hPa 0,0 l/m 0,0 km/h (0 Bft) O-NO 68 0 min 0,000 mm 0,0 UV-I 0 W/m 6,2 C 7,1 C 0,0 km/h (0 Bft)
19.11.2014 18:55 7,1 C 94 % 1023,5 hPa 0,0 l/m 0,0 km/h (0 Bft) O-NO 68 0 min 0,000 mm 0,0 UV-I 0 W/m 6,2 C 7,1 C 0,0 km/h (0 Bft)
19.11.2014 19:00 7,1 C 94 % 1023,6 hPa 0,0 l/m 0,0 km/h (0 Bft) O-NO 68 0 min 0,000 mm 0,0 UV-I 0 W/m 6,2 C 7,1 C 1,6 km/h (1 Bft)
19.11.2014 19:05 7,0 C 94 % 1023,5 hPa 0,0 l/m 0,0 km/h (0 Bft) O-NO 68 0 min 0,000 mm 0,0 UV-I 0 W/m 6,1 C 7,0 C 1,6 km/h (1 Bft)
19.11.2014 19:10 7,0 C 94 % 1023,7 hPa 0,0 l/m 0,0 km/h (0 Bft) O-NO 68 0 min 0,000 mm 0,0 UV-I 0 W/m 6,1 C 7,0 C 1,6 km/h (1 Bft)
19.11.2014 19:15 7,0 C 94 % 1023,7 hPa 0,0 l/m 0,0 km/h (0 Bft) O-NO 68 0 min 0,000 mm 0,0 UV-I 0 W/m 6,1 C 7,0 C 1,6 km/h (1 Bft)
19.11.2014 19:20 7,0 C 94 % 1023,7 hPa 0,0 l/m 0,0 km/h (0 Bft) O-NO 68 0 min 0,000 mm 0,0 UV-I 0 W/m 6,1 C 7,0 C 0,0 km/h (0 Bft)
19.11.2014 19:25 7,0 C 94 % 1023,8 hPa 0,0 l/m 0,0 km/h (0 Bft) O-NO 68 0 min 0,000 mm 0,0 UV-I 0 W/m 6,1 C 7,0 C 0,0 km/h (0 Bft)
19.11.2014 19:30 6,9 C 94 % 1023,8 hPa 0,0 l/m 0,0 km/h (0 Bft) O-NO 68 0 min 0,000 mm 0,0 UV-I 0 W/m 6,0 C 6,9 C 1,6 km/h (1 Bft)
19.11.2014 19:35 6,9 C 94 % 1023,9 hPa 0,0 l/m 0,4 km/h (0 Bft) O-NO 68 0 min 0,000 mm 0,0 UV-I 0 W/m 6,0 C 6,9 C 3,2 km/h (1 Bft)
19.11.2014 19:40 6,9 C 95 % 1023,9 hPa 0,0 l/m 0,2 km/h (0 Bft) O-NO 69 0 min 0,000 mm 0,0 UV-I 0 W/m 6,2 C 6,9 C 1,6 km/h (1 Bft)
19.11.2014 19:45 6,9 C 95 % 1023,9 hPa 0,0 l/m 0,1 km/h (0 Bft) O-NO 69 0 min 0,000 mm 0,0 UV-I 0 W/m 6,2 C 6,9 C 3,2 km/h (1 Bft)
19.11.2014 19:50 6,9 C 95 % 1024,0 hPa 0,0 l/m 0,0 km/h (0 Bft) O-NO 69 0 min 0,000 mm 0,0 UV-I 0 W/m 6,2 C 6,9 C 0,0 km/h (0 Bft)
19.11.2014 19:55 6,9 C 95 % 1024,0 hPa 0,0 l/m 0,0 km/h (0 Bft) O-NO 69 0 min 0,000 mm 0,0 UV-I 0 W/m 6,2 C 6,9 C 0,0 km/h (0 Bft)
19.11.2014 20:00 6,9 C 95 % 1024,0 hPa 0,0 l/m 0,0 km/h (0 Bft) O-NO 69 0 min 0,000 mm 0,0 UV-I 0 W/m 6,2 C 6,9 C 0,0 km/h (0 Bft)
19.11.2014 20:05 6,9 C 95 % 1024,1 hPa 0,0 l/m 0,0 km/h (0 Bft) O-NO 69 0 min 0,000 mm 0,0 UV-I 0 W/m 6,2 C 6,9 C 0,0 km/h (0 Bft)
19.11.2014 20:10 6,8 C 95 % 1024,1 hPa 0,0 l/m 0,0 km/h (0 Bft) O-NO 69 0 min 0,000 mm 0,0 UV-I 0 W/m 6,1 C 6,8 C 0,0 km/h (0 Bft)
19.11.2014 20:15 6,8 C 95 % 1024,1 hPa 0,0 l/m 0,0 km/h (0 Bft) O-NO 69 0 min 0,000 mm 0,0 UV-I 0 W/m 6,1 C 6,8 C 0,0 km/h (0 Bft)
19.11.2014 20:20 6,8 C 95 % 1024,2 hPa 0,0 l/m 0,0 km/h (0 Bft) O-NO 69 0 min 0,000 mm 0,0 UV-I 0 W/m 6,1 C 6,8 C 0,0 km/h (0 Bft)
19.11.2014 20:25 6,8 C 95 % 1024,2 hPa 0,0 l/m 0,0 km/h (0 Bft) O-NO 69 0 min 0,000 mm 0,0 UV-I 0 W/m 6,1 C 6,8 C 0,0 km/h (0 Bft)
19.11.2014 20:30 6,8 C 95 % 1024,2 hPa 0,0 l/m 0,1 km/h (0 Bft) O-NO 69 0 min 0,000 mm 0,0 UV-I 0 W/m 6,1 C 6,8 C 1,6 km/h (1 Bft)
19.11.2014 20:35 6,8 C 94 % 1024,3 hPa 0,0 l/m 0,0 km/h (0 Bft) O-NO 69 0 min 0,000 mm 0,0 UV-I 0 W/m 5,9 C 6,8 C 1,6 km/h (1 Bft)
19.11.2014 20:40 6,8 C 94 % 1024,4 hPa 0,0 l/m 0,0 km/h (0 Bft) O-NO 69 0 min 0,000 mm 0,0 UV-I 0 W/m 5,9 C 6,8 C 0,0 km/h (0 Bft)
19.11.2014 20:45 6,8 C 94 % 1024,5 hPa 0,0 l/m 0,0 km/h (0 Bft) O-NO 69 0 min 0,000 mm 0,0 UV-I 0 W/m 5,9 C 6,8 C 0,0 km/h (0 Bft)
19.11.2014 20:50 6,8 C 94 % 1024,6 hPa 0,0 l/m 0,0 km/h (0 Bft) O-NO 69 0 min 0,000 mm 0,0 UV-I 0 W/m 5,9 C 6,8 C 0,0 km/h (0 Bft)
19.11.2014 20:55 6,8 C 94 % 1024,6 hPa 0,0 l/m 0,0 km/h (0 Bft) O-NO 69 0 min 0,000 mm 0,0 UV-I 0 W/m 5,9 C 6,8 C 0,0 km/h (0 Bft)
19.11.2014 21:00 6,8 C 94 % 1024,6 hPa 0,0 l/m 0,0 km/h (0 Bft) O-NO 69 0 min 0,000 mm 0,0 UV-I 0 W/m 5,9 C 6,8 C 1,6 km/h (1 Bft)
19.11.2014 21:05 6,8 C 94 % 1024,7 hPa 0,0 l/m 0,0 km/h (0 Bft) O-NO 69 0 min 0,000 mm 0,0 UV-I 0 W/m 5,9 C 6,8 C 1,6 km/h (1 Bft)
19.11.2014 21:10 6,7 C 94 % 1024,7 hPa 0,0 l/m 0,1 km/h (0 Bft) O-NO 69 0 min 0,000 mm 0,0 UV-I 0 W/m 5,8 C 6,7 C 1,6 km/h (1 Bft)
19.11.2014 21:15 6,7 C 94 % 1024,7 hPa 0,0 l/m 0,0 km/h (0 Bft) O-NO 69 0 min 0,000 mm 0,0 UV-I 0 W/m 5,8 C 6,7 C 1,6 km/h (1 Bft)
19.11.2014 21:20 6,7 C 94 % 1024,6 hPa 0,0 l/m 0,1 km/h (0 Bft) O-NO 69 0 min 0,000 mm 0,0 UV-I 0 W/m 5,8 C 6,7 C 1,6 km/h (1 Bft)
19.11.2014 21:25 6,7 C 94 % 1024,5 hPa 0,0 l/m 0,0 km/h (0 Bft) O-NO 69 0 min 0,000 mm 0,0 UV-I 0 W/m 5,8 C 6,7 C 1,6 km/h (1 Bft)
19.11.2014 21:30 6,7 C 95 % 1024,5 hPa 0,0 l/m 0,2 km/h (0 Bft) O-NO 69 0 min 0,000 mm 0,0 UV-I 0 W/m 6,0 C 6,7 C 3,2 km/h (1 Bft)
19.11.2014 21:35 6,7 C 95 % 1024,6 hPa 0,0 l/m 0,0 km/h (0 Bft) O-NO 69 0 min 0,000 mm 0,0 UV-I 0 W/m 6,0 C 6,7 C 0,0 km/h (0 Bft)
19.11.2014 21:40 6,7 C 95 % 1024,6 hPa 0,0 l/m 0,0 km/h (0 Bft) O-NO 69 0 min 0,000 mm 0,0 UV-I 0 W/m 6,0 C 6,7 C 0,0 km/h (0 Bft)
19.11.2014 21:45 6,7 C 95 % 1024,6 hPa 0,0 l/m 0,0 km/h (0 Bft) O-NO 69 0 min 0,000 mm 0,0 UV-I 0 W/m 6,0 C 6,7 C 1,6 km/h (1 Bft)
19.11.2014 21:50 6,7 C 95 % 1024,7 hPa 0,0 l/m 0,0 km/h (0 Bft) O-NO 69 0 min 0,000 mm 0,0 UV-I 0 W/m 6,0 C 6,7 C 0,0 km/h (0 Bft)
19.11.2014 21:55 6,7 C 95 % 1024,9 hPa 0,0 l/m 0,0 km/h (0 Bft) O-NO 69 0 min 0,000 mm 0,0 UV-I 0 W/m 6,0 C 6,7 C 0,0 km/h (0 Bft)
19.11.2014 22:00 6,7 C 95 % 1025,1 hPa 0,0 l/m 0,0 km/h (0 Bft) O-NO 69 0 min 0,000 mm 0,0 UV-I 0 W/m 6,0 C 6,7 C 0,0 km/h (0 Bft)
19.11.2014 22:05 6,8 C 95 % 1025,2 hPa 0,0 l/m 0,0 km/h (0 Bft) O-NO 69 0 min 0,000 mm 0,0 UV-I 0 W/m 6,1 C 6,8 C 0,0 km/h (0 Bft)
19.11.2014 22:10 6,8 C 95 % 1025,3 hPa 0,0 l/m 0,0 km/h (0 Bft) O-NO 69 0 min 0,000 mm 0,0 UV-I 0 W/m 6,1 C 6,8 C 0,0 km/h (0 Bft)
19.11.2014 22:15 6,8 C 95 % 1025,4 hPa 0,0 l/m 0,0 km/h (0 Bft) O-NO 69 0 min 0,000 mm 0,0 UV-I 0 W/m 6,1 C 6,8 C 0,0 km/h (0 Bft)
19.11.2014 22:20 6,8 C 95 % 1025,5 hPa 0,0 l/m 0,0 km/h (0 Bft) O-NO 69 0 min 0,000 mm 0,0 UV-I 0 W/m 6,1 C 6,8 C 0,0 km/h (0 Bft)
19.11.2014 22:25 6,8 C 95 % 1025,3 hPa 0,0 l/m 0,0 km/h (0 Bft) O-NO 69 0 min 0,000 mm 0,0 UV-I 0 W/m 6,1 C 6,8 C 0,0 km/h (0 Bft)
19.11.2014 22:30 6,8 C 95 % 1025,3 hPa 0,0 l/m 0,0 km/h (0 Bft) O-NO 69 0 min 0,000 mm 0,0 UV-I 0 W/m 6,1 C 6,8 C 0,0 km/h (0 Bft)
19.11.2014 22:35 6,8 C 95 % 1025,2 hPa 0,0 l/m 0,0 km/h (0 Bft) O-NO 69 0 min 0,000 mm 0,0 UV-I 0 W/m 6,1 C 6,8 C 0,0 km/h (0 Bft)
19.11.2014 22:40 6,8 C 95 % 1025,4 hPa 0,0 l/m 0,0 km/h (0 Bft) O-NO 69 0 min 0,000 mm 0,0 UV-I 0 W/m 6,1 C 6,8 C 1,6 km/h (1 Bft)
19.11.2014 22:45 6,8 C 95 % 1025,6 hPa 0,0 l/m 0,0 km/h (0 Bft) O-NO 69 0 min 0,000 mm 0,0 UV-I 0 W/m 6,1 C 6,8 C 0,0 km/h (0 Bft)
19.11.2014 22:50 6,8 C 95 % 1025,6 hPa 0,0 l/m 0,0 km/h (0 Bft) O-NO 69 0 min 0,000 mm 0,0 UV-I 0 W/m 6,1 C 6,8 C 0,0 km/h (0 Bft)
19.11.2014 22:55 6,8 C 95 % 1025,7 hPa 0,0 l/m 0,0 km/h (0 Bft) O-NO 69 0 min 0,000 mm 0,0 UV-I 0 W/m 6,1 C 6,8 C 0,0 km/h (0 Bft)
19.11.2014 23:00 6,8 C 95 % 1025,7 hPa 0,0 l/m 0,0 km/h (0 Bft) O-NO 69 0 min 0,000 mm 0,0 UV-I 0 W/m 6,1 C 6,8 C 0,0 km/h (0 Bft)
19.11.2014 23:05 6,8 C 95 % 1025,6 hPa 0,0 l/m 0,0 km/h (0 Bft) O-NO 69 0 min 0,000 mm 0,0 UV-I 0 W/m 6,1 C 6,8 C 0,0 km/h (0 Bft)
19.11.2014 23:10 6,8 C 95 % 1025,5 hPa 0,0 l/m 0,0 km/h (0 Bft) O-NO 69 0 min 0,000 mm 0,0 UV-I 0 W/m 6,1 C 6,8 C 0,0 km/h (0 Bft)
19.11.2014 23:15 6,8 C 95 % 1025,4 hPa 0,0 l/m 0,0 km/h (0 Bft) O-NO 69 0 min 0,000 mm 0,0 UV-I 0 W/m 6,1 C 6,8 C 0,0 km/h (0 Bft)
19.11.2014 23:20 6,9 C 95 % 1025,5 hPa 0,0 l/m 0,0 km/h (0 Bft) O-NO 69 0 min 0,000 mm 0,0 UV-I 0 W/m 6,2 C 6,9 C 0,0 km/h (0 Bft)
19.11.2014 23:25 6,8 C 95 % 1025,6 hPa 0,0 l/m 0,0 km/h (0 Bft) O-NO 69 0 min 0,000 mm 0,0 UV-I 0 W/m 6,1 C 6,8 C 0,0 km/h (0 Bft)
19.11.2014 23:30 6,8 C 95 % 1025,6 hPa 0,0 l/m 0,0 km/h (0 Bft) O-NO 69 0 min 0,000 mm 0,0 UV-I 0 W/m 6,1 C 6,8 C 0,0 km/h (0 Bft)
19.11.2014 23:35 6,9 C 95 % 1025,8 hPa 0,0 l/m 0,0 km/h (0 Bft) O-NO 69 0 min 0,000 mm 0,0 UV-I 0 W/m 6,2 C 6,9 C 0,0 km/h (0 Bft)
19.11.2014 23:40 6,9 C 95 % 1025,8 hPa 0,0 l/m 0,0 km/h (0 Bft) O-NO 69 0 min 0,000 mm 0,0 UV-I 0 W/m 6,2 C 6,9 C 0,0 km/h (0 Bft)
19.11.2014 23:45 6,9 C 95 % 1025,7 hPa 0,0 l/m 0,0 km/h (0 Bft) O-NO 69 0 min 0,000 mm 0,0 UV-I 0 W/m 6,2 C 6,9 C 0,0 km/h (0 Bft)
19.11.2014 23:50 6,9 C 95 % 1025,7 hPa 0,0 l/m 0,0 km/h (0 Bft) O-NO 69 0 min 0,000 mm 0,0 UV-I 0 W/m 6,2 C 6,9 C 0,0 km/h (0 Bft)
19.11.2014 23:55 6,9 C 95 % 1025,6 hPa 0,0 l/m 0,0 km/h (0 Bft) O-NO 69 0 min 0,000 mm 0,0 UV-I 0 W/m 6,2 C 6,9 C 0,0 km/h (0 Bft)
_ Min-Zeit 05:05 14:20 00:00 - 00:10 - - - - - - 05:10 05:05 00:10
Minimum _ 6,3 C 89 % 1012,0 hPa - 0,0 km/h (0 Bft) - - - - - - 5,6 C 6,3 C 0,0 km/h (0 Bft)
_ Max-Zeit 13:55 00:00 23:35 00:00 14:20 - - 00:00 13:00 11:50 13:00 13:20 14:00 14:15
Maximum _ 8,4 C 96 % 1025,8 hPa 0,0 l/m 4,0 km/h
W-NW (1 Bft)
- - 0 min 0,051 mm 0,5 UV-I 106 W/m 7,0 C 8,4 C 8,0 km/h
W-SW (2 Bft)
Durchschnitt _ 7,0 C 94 % 1019,3 hPa #0,0 l/m 0,2 km/h (0 Bft) W - #0 min. #0,229 mm 0,4 UV-I 54 W/m 6,1 C 7,0 C 1,3 km/h (1 Bft)